Regional Weather Roundup
Issued by NWS Sioux Falls, SD

Home | Current Version | Previous Version | Graphics & Text | Print | Product List | Glossary Off
Versions: 1 2 3 4 5 6 7 8 9 10 11 12 13 14 15 16 17 18 19 20 21 22 23 24 25 26 27 28 29 30 31 32 33 34 35 36 37 38 39 40 41 42 43 44 45 46 47 48 49 50

000
ASUS43 KFSD 220810
RWRFSD

WEATHER ROUNDUP FOR SE SOUTH DAKOTA/SW MINNESOTA/NW IOWA
NATIONAL WEATHER SERVICE SIOUX FALLS SD
300 AM CDT TUE JUL 22 2014

NOTE: "FAIR" INDICATES FEW OR NO CLOUDS BELOW 12,000 FEET WITH NO
SIGNIFICANT WEATHER AND OR OBSTRUCTIONS TO VISIBILITY.


SDZ038>040-050-052>070-220900-
SOUTHEAST SOUTH DAKOTA

CITY           SKY/WX    TMP DP  RH WIND       PRES   REMARKS
CHAMBERLAIN    PTCLDY    72  60  66 NW23G29   30.08R
HURON          PTCLDY    68  62  81 NW12      29.93R
MADISON        FAIR      70  70 100 N9G16     29.91R
MITCHELL       CLEAR     71  63  75 N14G22    29.91R
SIOUX FALLS    CLEAR     78  74  87 N12       29.86R
WINNER         FAIR      74  63  68 NW20G25   30.07R
YANKTON        PTCLDY    75  72  88 NW7       29.85S
$$

MNZ071-072-080-081-089-090-097-098-220900-
SOUTHWEST MINNESOTA

CITY           SKY/WX    TMP DP  RH WIND       PRES   REMARKS
FAIRMONT       CLEAR     79  72  78 S7        29.84S
LUVERNE        FOG       72  70  94 CALM      29.87R VSB 3/4
MARSHALL       CLEAR     72  64  78 NW8       29.86R
MONTEVIDEO     CLEAR     66  63  88 N7        29.85S
PIPESTONE      CLEAR     77  73  88 N3        29.89R
REDWOOD FALLS  PTCLDY    77  75  93 NW12      29.83R
TRACY          PTCLDY    77  71  81 NW10G18   29.87R
WINDOM         CLEAR     79  75  89 W3        29.87R FOG
WORTHINGTON    CLEAR     79  75  89 W3        29.88R
$$

IAZ001>003-012>014-020>022-031-032-NEZ013-014-SDZ071-220900-
NORTHWEST IOWA

CITY           SKY/WX    TMP DP  RH WIND       PRES   REMARKS
CHEROKEE       CLEAR     77  76  97 SW3       29.86R
DENISON        MOCLDY    81  75  83 S8        29.86F
ESTHERVILLE    CLEAR     75  75 100 S3        29.85S FOG
LE MARS        PTCLDY    77  77 100 S6        29.85S
ORANGE CITY    CLEAR     77  73  88 CALM      29.86S FOG
SHELDON        CLEAR     77  75  94 CALM      29.85R FOG
SIOUX CITY     PTCLDY    82  74  76 W5        29.85R
SPENCER        CLEAR     77  75  93 S6        29.85S
STORM LAKE     PTCLDY    77  77 100 SW7       29.88S
$$

ABBREVIATIONS USED IN REMARKS
   TC - TEMPERATURE IN CELSIUS
  WCI - WIND CHILL INDEX
   HX - HEAT INDEX
  VSB - VISIBILITY



USA.gov is the U.S. government's official web portal to all federal, state and local government web resources and services.